Time,TemperatureF,DewpointF,PressureIn,WindDirection,WindDirectionDegrees,WindSpeedMPH,WindSpeedGustMPH,Humidity,HourlyPrecipIn,Conditions,Clouds,dailyrainin,SoftwareType,DateUTC
2013-08-30 00:01:00,65.2,61.0,29.57,SW,225,1.2,4.0,87,0.00,,,0.00,Rainwise IP-100,2013-08-30 04:01:00,
2013-08-30 00:06:00,65.1,61.0,29.56,SSW,202,1.4,4.0,87,0.00,,,0.00,Rainwise IP-100,2013-08-30 04:06:00,
2013-08-30 00:11:00,65.2,61.0,29.57,SW,225,1.9,3.0,87,0.00,,,0.00,Rainwise IP-100,2013-08-30 04:11:00,
2013-08-30 00:16:00,65.2,61.0,29.56,WSW,247,3.7,4.0,87,0.00,,,0.00,Rainwise IP-100,2013-08-30 04:16:00,
2013-08-30 00:21:00,65.1,61.0,29.56,SSW,202,2.3,4.0,87,0.00,,,0.00,Rainwise IP-100,2013-08-30 04:21:00,
2013-08-30 00:26:00,65.1,61.0,29.56,SSW,202,0.0,2.0,87,0.00,,,0.00,Rainwise IP-100,2013-08-30 04:26:00,
2013-08-30 00:31:00,65.0,61.0,29.56,WSW,247,1.6,2.0,87,0.00,,,0.00,Rainwise IP-100,2013-08-30 04:31:00,
2013-08-30 00:36:00,65.0,61.0,29.56,SW,225,2.8,4.0,87,0.00,,,0.00,Rainwise IP-100,2013-08-30 04:36:00,
2013-08-30 00:41:00,65.0,61.0,29.56,SSW,202,2.8,3.0,87,0.00,,,0.00,Rainwise IP-100,2013-08-30 04:41:00,
2013-08-30 00:46:00,65.0,61.0,29.56,SW,225,3.5,5.0,87,0.00,,,0.00,Rainwise IP-100,2013-08-30 04:46:00,
2013-08-30 00:51:00,64.9,61.0,29.55,WSW,247,4.7,5.0,87,0.00,,,0.00,Rainwise IP-100,2013-08-30 04:51:00,
2013-08-30 00:56:00,64.9,61.0,29.55,SW,225,2.8,5.0,87,0.00,,,0.00,Rainwise IP-100,2013-08-30 04:56:00,
2013-08-30 01:01:00,64.8,60.0,29.55,WSW,247,3.3,5.0,87,0.00,,,0.00,Rainwise IP-100,2013-08-30 05:01:00,
2013-08-30 01:07:00,64.8,60.0,29.55,WSW,247,1.9,4.0,87,0.00,,,0.00,Rainwise IP-100,2013-08-30 05:07:00,
2013-08-30 01:12:00,64.8,60.0,29.55,SW,225,3.7,5.0,87,0.00,,,0.00,Rainwise IP-100,2013-08-30 05:12:00,
2013-08-30 01:17:00,64.7,60.0,29.55,SW,225,5.1,5.1,87,0.00,,,0.00,Rainwise IP-100,2013-08-30 05:17:00,
2013-08-30 01:22:00,64.7,60.0,29.55,SW,225,1.4,6.0,87,0.00,,,0.00,Rainwise IP-100,2013-08-30 05:22:00,
2013-08-30 01:27:00,64.7,61.0,29.54,SW,225,2.8,3.0,88,0.00,,,0.00,Rainwise IP-100,2013-08-30 05:27:00,
2013-08-30 01:32:00,64.7,61.0,29.54,WSW,247,3.5,4.0,88,0.00,,,0.00,Rainwise IP-100,2013-08-30 05:32:00,
2013-08-30 01:37:00,64.7,61.0,29.54,SW,225,1.9,4.0,88,0.00,,,0.00,Rainwise IP-100,2013-08-30 05:37:00,
2013-08-30 01:42:00,64.6,61.0,29.54,SW,225,2.8,4.0,88,0.00,,,0.00,Rainwise IP-100,2013-08-30 05:42:00,
2013-08-30 01:47:00,64.6,61.0,29.54,SSW,202,4.0,4.0,88,0.00,,,0.00,Rainwise IP-100,2013-08-30 05:47:00,
2013-08-30 01:52:00,64.5,61.0,29.54,SW,225,3.7,5.0,88,0.00,,,0.00,Rainwise IP-100,2013-08-30 05:52:00,
2013-08-30 01:57:00,64.5,61.0,29.53,SW,225,1.2,4.0,88,0.00,,,0.00,Rainwise IP-100,2013-08-30 05:57:00,
2013-08-30 02:02:00,64.4,61.0,29.54,SW,225,2.3,3.0,88,0.00,,,0.00,Rainwise IP-100,2013-08-30 06:02:00,
2013-08-30 02:07:00,64.4,61.0,29.53,SSW,202,2.3,4.0,88,0.00,,,0.00,Rainwise IP-100,2013-08-30 06:07:00,
2013-08-30 02:12:00,64.4,61.0,29.53,SW,225,2.8,5.0,88,0.00,,,0.00,Rainwise IP-100,2013-08-30 06:12:00,
2013-08-30 02:17:00,64.4,61.0,29.53,South,180,0.0,4.0,88,0.00,,,0.00,Rainwise IP-100,2013-08-30 06:17:00,
2013-08-30 02:23:00,64.4,61.0,29.53,WSW,247,2.8,5.0,88,0.00,,,0.00,Rainwise IP-100,2013-08-30 06:23:00,
2013-08-30 02:28:00,64.4,61.0,29.52,SSW,202,2.3,5.0,89,0.00,,,0.00,Rainwise IP-100,2013-08-30 06:28:00,
2013-08-30 02:33:00,64.4,61.0,29.52,SW,225,4.0,6.0,89,0.00,,,0.00,Rainwise IP-100,2013-08-30 06:33:00,
2013-08-30 02:38:00,64.3,60.0,29.52,SW,225,3.0,4.0,89,0.00,,,0.00,Rainwise IP-100,2013-08-30 06:38:00,
2013-08-30 02:43:00,64.3,60.0,29.52,SW,225,3.0,4.0,89,0.00,,,0.00,Rainwise IP-100,2013-08-30 06:43:00,
2013-08-30 02:48:00,64.3,60.0,29.52,SW,225,2.8,5.0,89,0.00,,,0.00,Rainwise IP-100,2013-08-30 06:48:00,
2013-08-30 02:53:00,64.3,60.0,29.52,SW,225,2.6,7.0,89,0.00,,,0.00,Rainwise IP-100,2013-08-30 06:53:00,
2013-08-30 02:58:00,64.3,60.0,29.51,South,180,1.9,7.0,89,0.00,,,0.00,Rainwise IP-100,2013-08-30 06:58:00,
2013-08-30 03:03:00,64.2,60.0,29.52,SW,225,4.4,5.0,89,0.00,,,0.00,Rainwise IP-100,2013-08-30 07:03:00,
2013-08-30 03:08:00,64.2,60.0,29.52,South,180,1.6,5.0,89,0.00,,,0.00,Rainwise IP-100,2013-08-30 07:08:00,
2013-08-30 03:13:00,64.2,60.0,29.52,SW,225,1.6,3.0,89,0.00,,,0.00,Rainwise IP-100,2013-08-30 07:13:00,
2013-08-30 03:18:00,64.2,61.0,29.51,South,180,1.9,3.0,90,0.00,,,0.00,Rainwise IP-100,2013-08-30 07:18:00,
2013-08-30 03:23:00,64.2,61.0,29.51,SSW,202,1.9,4.0,90,0.00,,,0.00,Rainwise IP-100,2013-08-30 07:23:00,
2013-08-30 03:28:00,64.2,61.0,29.51,WSW,247,1.4,4.0,90,0.00,,,0.00,Rainwise IP-100,2013-08-30 07:28:00,
2013-08-30 03:33:00,64.2,61.0,29.51,WSW,247,1.4,3.0,90,0.00,,,0.00,Rainwise IP-100,2013-08-30 07:33:00,
2013-08-30 03:39:00,64.2,61.0,29.51,SW,225,3.5,5.0,90,0.00,,,0.00,Rainwise IP-100,2013-08-30 07:39:00,
2013-08-30 03:44:00,64.1,61.0,29.51,SW,225,2.1,3.0,90,0.00,,,0.00,Rainwise IP-100,2013-08-30 07:44:00,
2013-08-30 03:49:00,64.1,61.0,29.51,SSW,202,0.0,3.0,90,0.00,,,0.00,Rainwise IP-100,2013-08-30 07:49:00,
2013-08-30 03:54:00,64.1,61.0,29.52,SSW,202,2.6,3.0,90,0.00,,,0.00,Rainwise IP-100,2013-08-30 07:54:00,
2013-08-30 03:59:00,64.1,61.0,29.51,SSW,202,1.6,3.0,90,0.00,,,0.00,Rainwise IP-100,2013-08-30 07:59:00,
2013-08-30 04:04:00,64.1,61.0,29.52,South,180,1.4,3.0,90,0.00,,,0.00,Rainwise IP-100,2013-08-30 08:04:00,
2013-08-30 04:09:00,64.0,61.0,29.51,SSW,202,1.4,3.0,90,0.00,,,0.00,Rainwise IP-100,2013-08-30 08:09:00,
2013-08-30 04:14:00,64.1,61.0,29.51,SW,225,1.6,3.0,91,0.00,,,0.00,Rainwise IP-100,2013-08-30 08:14:00,
2013-08-30 04:19:00,64.0,61.0,29.51,SW,225,1.6,2.0,91,0.00,,,0.00,Rainwise IP-100,2013-08-30 08:19:00,
2013-08-30 04:24:00,64.0,61.0,29.51,SW,225,1.4,1.4,91,0.00,,,0.00,Rainwise IP-100,2013-08-30 08:24:00,
2013-08-30 04:29:00,64.0,61.0,29.50,South,180,2.1,3.0,91,0.00,,,0.00,Rainwise IP-100,2013-08-30 08:29:00,
2013-08-30 04:34:00,64.0,61.0,29.51,SSW,202,2.3,2.3,91,0.00,,,0.00,Rainwise IP-100,2013-08-30 08:34:00,
2013-08-30 04:39:00,64.0,61.0,29.51,SW,225,1.6,3.0,91,0.00,,,0.00,Rainwise IP-100,2013-08-30 08:39:00,
2013-08-30 04:44:00,64.0,61.0,29.50,SW,225,2.3,3.0,91,0.00,,,0.00,Rainwise IP-100,2013-08-30 08:44:00,
2013-08-30 04:49:00,64.0,61.0,29.49,WSW,247,1.4,3.0,91,0.00,,,0.00,Rainwise IP-100,2013-08-30 08:49:00,
2013-08-30 04:55:00,63.9,61.0,29.50,SW,225,4.0,4.0,91,0.00,,,0.00,Rainwise IP-100,2013-08-30 08:55:00,
2013-08-30 05:00:00,63.9,61.0,29.49,WSW,247,2.8,4.0,91,0.00,,,0.00,Rainwise IP-100,2013-08-30 09:00:00,
2013-08-30 05:05:00,63.8,61.0,29.49,SW,225,3.0,4.0,91,0.00,,,0.00,Rainwise IP-100,2013-08-30 09:05:00,
2013-08-30 05:10:00,63.8,61.0,29.49,WSW,247,4.4,5.0,91,0.00,,,0.00,Rainwise IP-100,2013-08-30 09:10:00,
2013-08-30 05:15:00,63.8,61.0,29.49,SW,225,3.0,4.0,92,0.00,,,0.00,Rainwise IP-100,2013-08-30 09:15:00,
2013-08-30 05:20:00,63.8,61.0,29.49,SSW,202,2.3,3.0,92,0.00,,,0.00,Rainwise IP-100,2013-08-30 09:20:00,
2013-08-30 05:25:00,63.8,61.0,29.50,SSW,202,3.7,5.0,92,0.00,,,0.00,Rainwise IP-100,2013-08-30 09:25:00,
2013-08-30 05:30:00,63.8,61.0,29.49,SSW,202,4.2,6.0,92,0.00,,,0.00,Rainwise IP-100,2013-08-30 09:30:00,
2013-08-30 05:35:00,63.8,61.0,29.49,SSW,202,4.0,5.0,92,0.00,,,0.00,Rainwise IP-100,2013-08-30 09:35:00,
2013-08-30 05:40:00,63.8,61.0,29.49,SSW,202,4.9,5.0,92,0.00,,,0.00,Rainwise IP-100,2013-08-30 09:40:00,
2013-08-30 05:45:00,63.7,61.0,29.49,SSW,202,3.3,6.0,92,0.00,,,0.00,Rainwise IP-100,2013-08-30 09:45:00,
2013-08-30 05:50:00,63.7,61.0,29.50,SSW,202,1.4,4.0,92,0.00,,,0.00,Rainwise IP-100,2013-08-30 09:50:00,
2013-08-30 05:55:00,63.7,61.0,29.50,SSW,202,1.6,4.0,93,0.00,,,0.00,Rainwise IP-100,2013-08-30 09:55:00,
2013-08-30 06:00:00,63.6,61.0,29.50,South,180,2.6,5.0,93,0.00,,,0.00,Rainwise IP-100,2013-08-30 10:00:00,
2013-08-30 06:05:00,63.6,61.0,29.49,SW,225,3.5,4.0,93,0.00,,,0.00,Rainwise IP-100,2013-08-30 10:05:00,
2013-08-30 06:11:00,63.7,61.0,29.50,SSW,202,2.8,4.0,93,0.00,,,0.00,Rainwise IP-100,2013-08-30 10:11:00,
2013-08-30 06:16:00,63.6,61.0,29.50,SSW,202,1.2,4.0,93,0.00,,,0.00,Rainwise IP-100,2013-08-30 10:16:00,
2013-08-30 06:21:00,63.6,61.0,29.50,WSW,247,1.9,2.0,93,0.00,,,0.00,Rainwise IP-100,2013-08-30 10:21:00,
2013-08-30 06:26:00,63.6,61.0,29.50,SSE,157,2.3,2.3,93,0.00,,,0.00,Rainwise IP-100,2013-08-30 10:26:00,
2013-08-30 06:31:00,63.5,61.0,29.50,SSE,157,0.0,3.0,94,0.00,,,0.00,Rainwise IP-100,2013-08-30 10:31:00,
2013-08-30 06:36:00,63.5,61.0,29.51,South,180,0.0,1.0,94,0.00,,,0.00,Rainwise IP-100,2013-08-30 10:36:00,
2013-08-30 06:41:00,63.5,61.0,29.50,West,270,2.3,3.0,94,0.00,,,0.00,Rainwise IP-100,2013-08-30 10:41:00,
2013-08-30 06:46:00,63.5,61.0,29.50,West,270,0.0,2.0,94,0.00,,,0.00,Rainwise IP-100,2013-08-30 10:46:00,
2013-08-30 06:51:00,63.4,61.0,29.50,SSW,202,2.8,3.0,94,0.00,,,0.00,Rainwise IP-100,2013-08-30 10:51:00,
2013-08-30 06:56:00,63.5,61.0,29.51,SW,225,3.5,3.5,94,0.00,,,0.00,Rainwise IP-100,2013-08-30 10:56:00,
2013-08-30 07:01:00,63.5,62.0,29.51,SSW,202,4.0,5.0,95,0.00,,,0.00,Rainwise IP-100,2013-08-30 11:01:00,
2013-08-30 07:06:00,63.5,62.0,29.51,SW,225,3.7,5.0,95,0.00,,,0.00,Rainwise IP-100,2013-08-30 11:06:00,
2013-08-30 07:11:00,63.5,62.0,29.51,SW,225,4.0,6.0,95,0.00,,,0.00,Rainwise IP-100,2013-08-30 11:11:00,
2013-08-30 07:16:00,63.5,62.0,29.51,SW,225,4.7,5.0,95,0.00,,,0.00,Rainwise IP-100,2013-08-30 11:16:00,
2013-08-30 07:21:00,63.5,62.0,29.50,SSW,202,3.3,5.0,95,0.00,,,0.00,Rainwise IP-100,2013-08-30 11:21:00,
2013-08-30 07:27:00,63.5,62.0,29.51,SSW,202,2.6,5.0,95,0.00,,,0.00,Rainwise IP-100,2013-08-30 11:27:00,
2013-08-30 07:32:00,63.5,62.0,29.50,SSE,157,0.0,4.0,95,0.00,,,0.00,Rainwise IP-100,2013-08-30 11:32:00,
2013-08-30 07:37:00,63.5,62.0,29.51,SSW,202,4.0,5.0,96,0.00,,,0.00,Rainwise IP-100,2013-08-30 11:37:00,
2013-08-30 07:42:00,63.5,62.0,29.50,SSW,202,4.2,4.2,96,0.00,,,0.00,Rainwise IP-100,2013-08-30 11:42:00,
2013-08-30 07:47:00,63.5,62.0,29.50,SSW,202,3.7,4.0,95,0.00,,,0.00,Rainwise IP-100,2013-08-30 11:47:00,
2013-08-30 07:52:00,63.7,62.0,29.50,SSW,202,2.6,5.0,95,0.00,,,0.00,Rainwise IP-100,2013-08-30 11:52:00,
2013-08-30 07:57:00,63.8,62.0,29.50,SSW,202,4.0,6.0,95,0.00,,,0.00,Rainwise IP-100,2013-08-30 11:57:00,
2013-08-30 08:02:00,63.9,62.0,29.50,SW,225,3.0,5.0,95,0.00,,,0.00,Rainwise IP-100,2013-08-30 12:02:00,
2013-08-30 08:07:00,64.1,62.0,29.50,South,180,4.0,5.0,95,0.00,,,0.00,Rainwise IP-100,2013-08-30 12:07:00,
2013-08-30 08:12:00,64.2,62.0,29.51,SSW,202,4.7,5.0,95,0.00,,,0.00,Rainwise IP-100,2013-08-30 12:12:00,
2013-08-30 08:17:00,64.2,62.0,29.50,SSW,202,3.0,5.0,95,0.00,,,0.00,Rainwise IP-100,2013-08-30 12:17:00,
2013-08-30 08:22:00,64.3,62.0,29.50,SSW,202,4.9,6.0,95,0.00,,,0.00,Rainwise IP-100,2013-08-30 12:22:00,
2013-08-30 08:27:00,64.3,62.0,29.50,SSW,202,3.7,5.0,95,0.00,,,0.00,Rainwise IP-100,2013-08-30 12:27:00,
2013-08-30 08:32:00,64.4,62.0,29.50,South,180,0.0,3.0,94,0.00,,,0.00,Rainwise IP-100,2013-08-30 12:32:00,
2013-08-30 08:37:00,64.5,62.0,29.50,SSE,157,0.0,3.0,94,0.00,,,0.00,Rainwise IP-100,2013-08-30 12:37:00,
2013-08-30 08:43:00,64.7,62.0,29.50,SSW,202,2.6,2.6,94,0.00,,,0.00,Rainwise IP-100,2013-08-30 12:43:00,
2013-08-30 08:48:00,64.9,63.0,29.50,SSW,202,2.3,4.0,94,0.00,,,0.00,Rainwise IP-100,2013-08-30 12:48:00,
2013-08-30 08:53:00,65.0,63.0,29.50,SW,225,2.6,4.0,93,0.00,,,0.00,Rainwise IP-100,2013-08-30 12:53:00,
2013-08-30 08:58:00,65.1,63.0,29.49,WSW,247,3.5,4.0,93,0.00,,,0.00,Rainwise IP-100,2013-08-30 12:58:00,
2013-08-30 09:03:00,65.2,63.0,29.49,South,180,4.4,5.0,93,0.00,,,0.00,Rainwise IP-100,2013-08-30 13:03:00,
2013-08-30 09:08:00,65.1,63.0,29.49,SSW,202,4.9,6.0,93,0.00,,,0.00,Rainwise IP-100,2013-08-30 13:08:00,
2013-08-30 09:13:00,65.2,63.0,29.49,South,180,3.3,6.0,93,0.00,,,0.00,Rainwise IP-100,2013-08-30 13:13:00,
2013-08-30 09:18:00,65.3,63.0,29.49,SSW,202,3.3,5.0,93,0.00,,,0.00,Rainwise IP-100,2013-08-30 13:18:00,
2013-08-30 09:23:00,65.4,63.0,29.49,SSW,202,6.1,8.0,92,0.00,,,0.00,Rainwise IP-100,2013-08-30 13:23:00,
2013-08-30 09:28:00,65.4,63.0,29.49,South,180,3.5,7.0,92,0.00,,,0.00,Rainwise IP-100,2013-08-30 13:28:00,
2013-08-30 09:33:00,65.4,63.0,29.49,WNW,292,2.8,4.0,92,0.00,,,0.00,Rainwise IP-100,2013-08-30 13:33:00,
2013-08-30 09:38:00,65.6,63.0,29.49,SW,225,2.6,5.0,92,0.00,,,0.00,Rainwise IP-100,2013-08-30 13:38:00,
2013-08-30 09:43:00,66.0,63.0,29.48,SW,225,3.3,3.3,91,0.00,,,0.00,Rainwise IP-100,2013-08-30 13:43:00,
2013-08-30 09:48:00,66.5,64.0,29.49,SW,225,5.1,5.1,91,0.00,,,0.00,Rainwise IP-100,2013-08-30 13:48:00,
2013-08-30 09:53:00,66.8,63.0,29.49,SSW,202,0.0,6.0,90,0.00,,,0.00,Rainwise IP-100,2013-08-30 13:53:00,
2013-08-30 09:59:00,67.3,64.0,29.48,NNE,22,1.4,4.0,91,0.00,,,0.00,Rainwise IP-100,2013-08-30 13:59:00,
2013-08-30 10:04:00,68.0,65.0,29.48,SSE,157,1.4,3.0,92,0.00,,,0.00,Rainwise IP-100,2013-08-30 14:04:00,
2013-08-30 10:09:00,68.9,66.0,29.48,SSE,157,3.7,3.7,92,0.00,,,0.00,Rainwise IP-100,2013-08-30 14:09:00,
2013-08-30 10:14:00,69.5,66.0,29.48,SE,135,0.0,4.0,91,0.00,,,0.00,Rainwise IP-100,2013-08-30 14:14:00,
2013-08-30 10:19:00,70.0,66.0,29.47,SSW,202,3.3,4.0,89,0.00,,,0.00,Rainwise IP-100,2013-08-30 14:19:00,
2013-08-30 10:24:00,70.6,66.0,29.47,SW,225,2.1,6.0,88,0.00,,,0.00,Rainwise IP-100,2013-08-30 14:24:00,
2013-08-30 10:29:00,71.5,67.0,29.47,SSW,202,7.5,9.0,86,0.00,,,0.00,Rainwise IP-100,2013-08-30 14:29:00,
2013-08-30 10:34:00,71.9,66.0,29.47,SSW,202,9.6,9.6,84,0.00,,,0.00,Rainwise IP-100,2013-08-30 14:34:00,
2013-08-30 10:39:00,72.0,65.0,29.47,SSW,202,6.3,9.0,80,0.00,,,0.00,Rainwise IP-100,2013-08-30 14:39:00,
2013-08-30 10:44:00,72.2,65.0,29.47,WSW,247,4.7,8.0,79,0.00,,,0.00,Rainwise IP-100,2013-08-30 14:44:00,
2013-08-30 10:49:00,71.6,65.0,29.47,WSW,247,2.8,8.0,79,0.00,,,0.00,Rainwise IP-100,2013-08-30 14:49:00,
2013-08-30 10:54:00,71.4,64.0,29.47,SW,225,5.8,9.0,79,0.00,,,0.00,Rainwise IP-100,2013-08-30 14:54:00,
2013-08-30 10:59:00,71.3,64.0,29.46,SSW,202,4.0,7.0,78,0.00,,,0.00,Rainwise IP-100,2013-08-30 14:59:00,
2013-08-30 11:04:00,71.2,64.0,29.46,SSE,157,3.3,9.0,78,0.00,,,0.00,Rainwise IP-100,2013-08-30 15:04:00,
2013-08-30 11:09:00,72.1,65.0,29.46,SSW,202,4.2,6.0,79,0.00,,,0.00,Rainwise IP-100,2013-08-30 15:09:00,
2013-08-30 11:14:00,73.2,66.0,29.46,South,180,2.8,5.0,78,0.00,,,0.00,Rainwise IP-100,2013-08-30 15:14:00,
2013-08-30 11:19:00,73.7,66.0,29.46,SW,225,0.0,6.0,76,0.00,,,0.00,Rainwise IP-100,2013-08-30 15:19:00,
2013-08-30 11:24:00,73.8,65.0,29.46,SW,225,3.0,6.0,75,0.00,,,0.00,Rainwise IP-100,2013-08-30 15:24:00,
2013-08-30 11:29:00,73.5,65.0,29.45,SW,225,3.5,7.0,75,0.00,,,0.00,Rainwise IP-100,2013-08-30 15:29:00,
2013-08-30 11:34:00,74.1,65.0,29.44,WSW,247,1.6,5.0,74,0.00,,,0.00,Rainwise IP-100,2013-08-30 15:34:00,
2013-08-30 11:39:00,74.9,65.0,29.44,SSW,202,4.2,6.0,72,0.00,,,0.00,Rainwise IP-100,2013-08-30 15:39:00,
2013-08-30 11:44:00,75.2,65.0,29.44,South,180,4.0,5.0,71,0.00,,,0.00,Rainwise IP-100,2013-08-30 15:44:00,
2013-08-30 11:49:00,75.3,65.0,29.44,SSW,202,4.9,5.0,70,0.00,,,0.00,Rainwise IP-100,2013-08-30 15:49:00,
2013-08-30 11:55:00,75.5,65.0,29.44,SW,225,4.4,7.0,70,0.00,,,0.00,Rainwise IP-100,2013-08-30 15:55:00,
2013-08-30 12:00:00,75.5,65.0,29.43,South,180,6.1,6.1,70,0.00,,,0.00,Rainwise IP-100,2013-08-30 16:00:00,
2013-08-30 12:05:00,75.7,64.0,29.43,South,180,2.3,6.0,69,0.00,,,0.00,Rainwise IP-100,2013-08-30 16:05:00,
2013-08-30 12:10:00,76.1,65.0,29.43,South,180,3.7,4.0,69,0.00,,,0.00,Rainwise IP-100,2013-08-30 16:10:00,
2013-08-30 12:15:00,76.8,65.0,29.43,SW,225,3.5,5.0,68,0.00,,,0.00,Rainwise IP-100,2013-08-30 16:15:00,
2013-08-30 12:20:00,77.2,66.0,29.43,South,180,2.8,6.0,67,0.00,,,0.00,Rainwise IP-100,2013-08-30 16:20:00,
2013-08-30 12:25:00,77.3,66.0,29.42,SSW,202,4.0,5.0,67,0.00,,,0.00,Rainwise IP-100,2013-08-30 16:25:00,
2013-08-30 12:30:00,77.5,65.0,29.42,South,180,0.0,5.0,66,0.00,,,0.00,Rainwise IP-100,2013-08-30 16:30:00,
2013-08-30 12:35:00,77.9,66.0,29.42,South,180,1.4,5.0,66,0.00,,,0.00,Rainwise IP-100,2013-08-30 16:35:00,
2013-08-30 12:40:00,78.5,66.0,29.42,East,90,0.0,4.0,66,0.00,,,0.00,Rainwise IP-100,2013-08-30 16:40:00,
2013-08-30 12:45:00,78.9,66.0,29.41,SSW,202,1.6,3.0,65,0.00,,,0.00,Rainwise IP-100,2013-08-30 16:45:00,
2013-08-30 12:50:00,79.3,66.0,29.41,East,90,4.4,4.4,64,0.00,,,0.00,Rainwise IP-100,2013-08-30 16:50:00,
2013-08-30 12:55:00,79.3,66.0,29.41,SW,225,4.4,6.0,63,0.00,,,0.00,Rainwise IP-100,2013-08-30 16:55:00,
2013-08-30 13:00:00,79.8,66.0,29.41,ESE,112,1.4,4.0,63,0.00,,,0.00,Rainwise IP-100,2013-08-30 17:00:00,
2013-08-30 13:05:00,80.5,66.0,29.40,East,90,2.1,5.0,62,0.00,,,0.00,Rainwise IP-100,2013-08-30 17:05:00,
2013-08-30 13:11:00,80.8,66.0,29.41,ENE,67,3.0,4.0,62,0.00,,,0.00,Rainwise IP-100,2013-08-30 17:11:00,
2013-08-30 13:16:00,80.6,66.0,29.40,SSW,202,0.0,5.0,62,0.00,,,0.00,Rainwise IP-100,2013-08-30 17:16:00,
2013-08-30 13:21:00,81.5,66.0,29.40,SSW,202,2.3,2.3,61,0.00,,,0.00,Rainwise IP-100,2013-08-30 17:21:00,
2013-08-30 13:26:00,82.6,67.0,29.39,SSW,202,1.9,7.0,60,0.00,,,0.00,Rainwise IP-100,2013-08-30 17:26:00,
2013-08-30 13:31:00,82.5,66.0,29.39,SSW,202,4.7,4.7,58,0.00,,,0.00,Rainwise IP-100,2013-08-30 17:31:00,
2013-08-30 13:36:00,82.1,66.0,29.39,SSE,157,2.8,6.0,58,0.00,,,0.00,Rainwise IP-100,2013-08-30 17:36:00,
2013-08-30 13:41:00,82.1,66.0,29.39,SW,225,4.0,4.0,58,0.00,,,0.00,Rainwise IP-100,2013-08-30 17:41:00,
2013-08-30 13:46:00,82.2,66.0,29.39,SSW,202,2.1,7.0,58,0.00,,,0.00,Rainwise IP-100,2013-08-30 17:46:00,
2013-08-30 13:51:00,82.7,66.0,29.39,SSW,202,4.2,6.0,58,0.00,,,0.00,Rainwise IP-100,2013-08-30 17:51:00,
2013-08-30 13:56:00,83.3,66.0,29.38,SSE,157,2.8,7.0,57,0.00,,,0.00,Rainwise IP-100,2013-08-30 17:56:00,
2013-08-30 14:01:00,83.1,66.0,29.38,SW,225,8.2,8.2,57,0.00,,,0.00,Rainwise IP-100,2013-08-30 18:01:00,
2013-08-30 14:06:00,83.0,66.0,29.38,ESE,112,0.0,8.0,56,0.00,,,0.00,Rainwise IP-100,2013-08-30 18:06:00,
2013-08-30 14:11:00,83.5,66.0,29.37,SW,225,0.0,3.0,56,0.00,,,0.00,Rainwise IP-100,2013-08-30 18:11:00,
2013-08-30 14:16:00,84.0,66.0,29.37,SSE,157,8.2,10.0,55,0.00,,,0.00,Rainwise IP-100,2013-08-30 18:16:00,
2013-08-30 14:21:00,83.9,66.0,29.37,SSE,157,1.4,9.0,55,0.00,,,0.00,Rainwise IP-100,2013-08-30 18:21:00,
2013-08-30 14:27:00,83.4,66.0,29.36,SSW,202,6.8,8.0,55,0.00,,,0.00,Rainwise IP-100,2013-08-30 18:27:00,
2013-08-30 14:32:00,83.4,66.0,29.36,SW,225,7.7,9.0,55,0.00,,,0.00,Rainwise IP-100,2013-08-30 18:32:00,
2013-08-30 14:37:00,83.5,66.0,29.36,SW,225,0.0,8.0,55,0.00,,,0.00,Rainwise IP-100,2013-08-30 18:37:00,
2013-08-30 14:42:00,83.4,66.0,29.36,South,180,4.4,7.0,56,0.00,,,0.00,Rainwise IP-100,2013-08-30 18:42:00,
2013-08-30 14:47:00,83.2,66.0,29.36,South,180,4.4,9.0,56,0.00,,,0.00,Rainwise IP-100,2013-08-30 18:47:00,
2013-08-30 14:52:00,83.2,65.0,29.36,WSW,247,1.2,6.0,55,0.00,,,0.00,Rainwise IP-100,2013-08-30 18:52:00,
2013-08-30 14:57:00,84.0,66.0,29.36,South,180,4.9,7.0,54,0.00,,,0.00,Rainwise IP-100,2013-08-30 18:57:00,
2013-08-30 15:02:00,85.0,66.0,29.35,SSW,202,3.5,6.0,54,0.00,,,0.00,Rainwise IP-100,2013-08-30 19:02:00,
2013-08-30 15:07:00,85.5,66.0,29.35,SW,225,3.3,7.0,52,0.00,,,0.00,Rainwise IP-100,2013-08-30 19:07:00,
2013-08-30 15:12:00,85.4,65.0,29.35,WSW,247,2.6,9.0,51,0.00,,,0.00,Rainwise IP-100,2013-08-30 19:12:00,
2013-08-30 15:17:00,84.9,63.0,29.35,WSW,247,5.8,12.0,49,0.00,,,0.00,Rainwise IP-100,2013-08-30 19:17:00,
2013-08-30 15:22:00,83.8,62.0,29.35,SW,225,1.6,6.0,49,0.00,,,0.00,Rainwise IP-100,2013-08-30 19:22:00,
2013-08-30 15:27:00,83.9,63.0,29.35,WNW,292,0.0,4.0,49,0.00,,,0.00,Rainwise IP-100,2013-08-30 19:27:00,
2013-08-30 15:32:00,84.6,63.0,29.35,SSW,202,0.0,6.0,49,0.00,,,0.00,Rainwise IP-100,2013-08-30 19:32:00,
2013-08-30 15:37:00,85.1,63.0,29.35,South,180,2.6,7.0,48,0.00,,,0.00,Rainwise IP-100,2013-08-30 19:37:00,
2013-08-30 15:43:00,85.5,63.0,29.35,South,180,4.2,6.0,48,0.00,,,0.00,Rainwise IP-100,2013-08-30 19:43:00,
2013-08-30 15:48:00,85.7,62.0,29.35,SW,225,2.1,7.0,46,0.00,,,0.00,Rainwise IP-100,2013-08-30 19:48:00,
2013-08-30 15:53:00,85.6,62.0,29.34,SSW,202,2.8,7.0,46,0.00,,,0.00,Rainwise IP-100,2013-08-30 19:53:00,
2013-08-30 15:58:00,85.7,63.0,29.35,ESE,112,3.3,4.0,47,0.00,,,0.00,Rainwise IP-100,2013-08-30 19:58:00,
2013-08-30 16:03:00,85.8,63.0,29.34,WNW,292,0.0,6.0,47,0.00,,,0.00,Rainwise IP-100,2013-08-30 20:03:00,
2013-08-30 16:08:00,85.8,62.0,29.34,WNW,292,3.7,7.0,46,0.00,,,0.00,Rainwise IP-100,2013-08-30 20:08:00,
2013-08-30 16:13:00,86.2,63.0,29.34,South,180,6.8,7.0,46,0.00,,,0.00,Rainwise IP-100,2013-08-30 20:13:00,
2013-08-30 16:18:00,86.5,63.0,29.34,East,90,3.0,7.0,46,0.00,,,0.00,Rainwise IP-100,2013-08-30 20:18:00,
2013-08-30 16:23:00,86.3,63.0,29.34,WSW,247,2.6,6.0,46,0.00,,,0.00,Rainwise IP-100,2013-08-30 20:23:00,
2013-08-30 16:28:00,85.7,63.0,29.34,NNE,22,0.0,5.0,47,0.00,,,0.00,Rainwise IP-100,2013-08-30 20:28:00,
2013-08-30 16:33:00,85.5,63.0,29.34,NNW,337,4.4,10.0,47,0.00,,,0.00,Rainwise IP-100,2013-08-30 20:33:00,
2013-08-30 16:38:00,85.7,62.0,29.34,West,270,5.4,6.0,46,0.00,,,0.00,Rainwise IP-100,2013-08-30 20:38:00,
2013-08-30 16:43:00,85.7,62.0,29.34,South,180,3.7,5.0,46,0.00,,,0.00,Rainwise IP-100,2013-08-30 20:43:00,
2013-08-30 16:48:00,85.6,63.0,29.34,WNW,292,0.0,7.0,47,0.00,,,0.00,Rainwise IP-100,2013-08-30 20:48:00,
2013-08-30 16:53:00,85.6,63.0,29.33,SW,225,2.3,5.0,47,0.00,,,0.00,Rainwise IP-100,2013-08-30 20:53:00,
2013-08-30 16:59:00,85.3,62.0,29.34,South,180,1.2,6.0,47,0.00,,,0.00,Rainwise IP-100,2013-08-30 20:59:00,
2013-08-30 17:04:00,84.9,62.0,29.33,WSW,247,3.5,5.0,47,0.00,,,0.00,Rainwise IP-100,2013-08-30 21:04:00,
2013-08-30 17:09:00,84.8,63.0,29.33,South,180,0.0,5.0,48,0.00,,,0.00,Rainwise IP-100,2013-08-30 21:09:00,
2013-08-30 17:14:00,85.2,63.0,29.33,SW,225,0.0,2.0,48,0.00,,,0.00,Rainwise IP-100,2013-08-30 21:14:00,
2013-08-30 17:19:00,85.7,64.0,29.34,WNW,292,1.9,2.0,48,0.00,,,0.00,Rainwise IP-100,2013-08-30 21:19:00,
2013-08-30 17:24:00,85.4,63.0,29.34,South,180,1.6,3.0,48,0.00,,,0.00,Rainwise IP-100,2013-08-30 21:24:00,
2013-08-30 17:29:00,84.8,63.0,29.34,NE,45,0.0,3.0,49,0.00,,,0.00,Rainwise IP-100,2013-08-30 21:29:00,
2013-08-30 17:34:00,83.9,63.0,29.33,West,270,1.6,2.0,49,0.00,,,0.00,Rainwise IP-100,2013-08-30 21:34:00,
2013-08-30 17:39:00,82.7,63.0,29.33,WSW,247,2.3,2.3,51,0.00,,,0.00,Rainwise IP-100,2013-08-30 21:39:00,
2013-08-30 17:44:00,81.6,63.0,29.33,WSW,247,2.1,3.0,54,0.00,,,0.00,Rainwise IP-100,2013-08-30 21:44:00,
2013-08-30 17:49:00,80.4,64.0,29.33,SW,225,1.2,2.0,57,0.00,,,0.00,Rainwise IP-100,2013-08-30 21:49:00,
2013-08-30 17:54:00,80.0,64.0,29.33,WSW,247,2.3,2.3,58,0.00,,,0.00,Rainwise IP-100,2013-08-30 21:54:00,
2013-08-30 17:59:00,80.1,64.0,29.33,WSW,247,1.4,2.0,58,0.00,,,0.00,Rainwise IP-100,2013-08-30 21:59:00,
2013-08-30 18:04:00,79.8,64.0,29.33,WSW,247,0.0,1.0,60,0.00,,,0.00,Rainwise IP-100,2013-08-30 22:04:00,
2013-08-30 18:09:00,79.3,65.0,29.33,WSW,247,1.6,2.0,62,0.00,,,0.00,Rainwise IP-100,2013-08-30 22:09:00,
2013-08-30 18:15:00,78.9,65.0,29.33,WSW,247,0.0,2.0,63,0.00,,,0.00,Rainwise IP-100,2013-08-30 22:15:00,
2013-08-30 18:20:00,78.4,66.0,29.33,WSW,247,1.9,1.9,65,0.00,,,0.00,Rainwise IP-100,2013-08-30 22:20:00,
2013-08-30 18:25:00,78.0,66.0,29.33,WSW,247,1.6,2.0,67,0.00,,,0.00,Rainwise IP-100,2013-08-30 22:25:00,
2013-08-30 18:30:00,77.6,66.0,29.33,SW,225,1.4,2.0,69,0.00,,,0.00,Rainwise IP-100,2013-08-30 22:30:00,
2013-08-30 18:35:00,77.2,67.0,29.33,SW,225,1.6,2.0,71,0.00,,,0.00,Rainwise IP-100,2013-08-30 22:35:00,
2013-08-30 18:40:00,77.1,67.0,29.33,SW,225,1.4,2.0,72,0.00,,,0.00,Rainwise IP-100,2013-08-30 22:40:00,
2013-08-30 18:45:00,76.9,68.0,29.33,SW,225,1.4,2.0,73,0.00,,,0.00,Rainwise IP-100,2013-08-30 22:45:00,
2013-08-30 18:50:00,76.6,67.0,29.33,SW,225,1.4,2.0,74,0.00,,,0.00,Rainwise IP-100,2013-08-30 22:50:00,
2013-08-30 18:55:00,76.5,67.0,29.33,SW,225,1.2,2.0,73,0.00,,,0.00,Rainwise IP-100,2013-08-30 22:55:00,
2013-08-30 19:00:00,76.4,67.0,29.33,SW,225,0.0,1.0,73,0.00,,,0.00,Rainwise IP-100,2013-08-30 23:00:00,
2013-08-30 19:05:00,76.2,67.0,29.33,SW,225,0.0,1.0,74,0.00,,,0.00,Rainwise IP-100,2013-08-30 23:05:00,
2013-08-30 19:10:00,76.0,67.0,29.33,SW,225,0.0,0.0,75,0.00,,,0.00,Rainwise IP-100,2013-08-30 23:10:00,
2013-08-30 19:15:00,75.8,67.0,29.33,SW,225,0.0,1.0,75,0.00,,,0.00,Rainwise IP-100,2013-08-30 23:15:00,
2013-08-30 19:20:00,75.6,67.0,29.33,SW,225,0.0,0.0,75,0.00,,,0.00,Rainwise IP-100,2013-08-30 23:20:00,
2013-08-30 19:25:00,75.3,66.0,29.33,SW,225,0.0,0.0,75,0.00,,,0.00,Rainwise IP-100,2013-08-30 23:25:00,
2013-08-30 19:31:00,75.0,67.0,29.33,SW,225,0.0,0.0,76,0.00,,,0.00,Rainwise IP-100,2013-08-30 23:31:00,
2013-08-30 19:36:00,74.8,67.0,29.33,SW,225,0.0,0.0,77,0.00,,,0.00,Rainwise IP-100,2013-08-30 23:36:00,
2013-08-30 19:41:00,74.4,67.0,29.33,SW,225,0.0,0.0,78,0.00,,,0.00,Rainwise IP-100,2013-08-30 23:41:00,
2013-08-30 19:46:00,74.0,66.0,29.33,SW,225,0.0,0.0,78,0.00,,,0.00,Rainwise IP-100,2013-08-30 23:46:00,
2013-08-30 19:51:00,73.6,66.0,29.34,SW,225,0.0,0.0,79,0.00,,,0.00,Rainwise IP-100,2013-08-30 23:51:00,
2013-08-30 19:56:00,73.3,66.0,29.34,SW,225,0.0,0.0,80,0.00,,,0.00,Rainwise IP-100,2013-08-30 23:56:00,
2013-08-30 20:01:00,73.2,67.0,29.34,SW,225,0.0,0.0,81,0.00,,,0.00,Rainwise IP-100,2013-08-31 00:01:00,
2013-08-30 20:06:00,72.9,67.0,29.33,SW,225,0.0,0.0,82,0.00,,,0.00,Rainwise IP-100,2013-08-31 00:06:00,
2013-08-30 20:11:00,72.6,67.0,29.34,SW,225,0.0,0.0,83,0.00,,,0.00,Rainwise IP-100,2013-08-31 00:11:00,
2013-08-30 20:16:00,72.4,66.0,29.34,SW,225,0.0,0.0,83,0.00,,,0.00,Rainwise IP-100,2013-08-31 00:16:00,
2013-08-30 20:21:00,72.2,67.0,29.34,SW,225,0.0,0.0,84,0.00,,,0.00,Rainwise IP-100,2013-08-31 00:21:00,
2013-08-30 20:26:00,71.9,66.0,29.34,SW,225,0.0,0.0,84,0.00,,,0.00,Rainwise IP-100,2013-08-31 00:26:00,
2013-08-30 20:31:00,71.7,66.0,29.34,SW,225,0.0,0.0,84,0.00,,,0.00,Rainwise IP-100,2013-08-31 00:31:00,
2013-08-30 20:36:00,71.4,66.0,29.34,SW,225,0.0,0.0,84,0.00,,,0.00,Rainwise IP-100,2013-08-31 00:36:00,
2013-08-30 20:41:00,71.2,66.0,29.34,SW,225,0.0,0.0,85,0.00,,,0.00,Rainwise IP-100,2013-08-31 00:41:00,
2013-08-30 20:47:00,71.1,66.0,29.35,SW,225,0.0,0.0,85,0.00,,,0.00,Rainwise IP-100,2013-08-31 00:47:00,
2013-08-30 20:52:00,70.9,66.0,29.35,SW,225,0.0,0.0,86,0.00,,,0.00,Rainwise IP-100,2013-08-31 00:52:00,
2013-08-30 20:57:00,70.7,66.0,29.34,SW,225,0.0,0.0,86,0.00,,,0.00,Rainwise IP-100,2013-08-31 00:57:00,
2013-08-30 21:02:00,70.7,66.0,29.34,SW,225,0.0,0.0,86,0.00,,,0.00,Rainwise IP-100,2013-08-31 01:02:00,
2013-08-30 21:07:00,70.5,66.0,29.34,SW,225,0.0,0.0,86,0.00,,,0.00,Rainwise IP-100,2013-08-31 01:07:00,
2013-08-30 21:12:00,70.2,66.0,29.34,SW,225,0.0,0.0,87,0.00,,,0.00,Rainwise IP-100,2013-08-31 01:12:00,
2013-08-30 21:17:00,70.1,66.0,29.34,SW,225,0.0,0.0,88,0.00,,,0.00,Rainwise IP-100,2013-08-31 01:17:00,
2013-08-30 21:22:00,70.1,66.0,29.34,SW,225,0.0,0.0,88,0.00,,,0.00,Rainwise IP-100,2013-08-31 01:22:00,
2013-08-30 21:27:00,70.2,66.0,29.34,SW,225,0.0,0.0,88,0.00,,,0.00,Rainwise IP-100,2013-08-31 01:27:00,
2013-08-30 21:32:00,70.3,66.0,29.34,SW,225,0.0,0.0,88,0.00,,,0.00,Rainwise IP-100,2013-08-31 01:32:00,
2013-08-30 21:37:00,70.3,66.0,29.34,SW,225,0.0,0.0,88,0.00,,,0.00,Rainwise IP-100,2013-08-31 01:37:00,
2013-08-30 21:42:00,70.3,66.0,29.34,SW,225,0.0,0.0,88,0.00,,,0.00,Rainwise IP-100,2013-08-31 01:42:00,
2013-08-30 21:47:00,70.2,66.0,29.34,SW,225,0.0,0.0,88,0.00,,,0.00,Rainwise IP-100,2013-08-31 01:47:00,
2013-08-30 21:52:00,70.1,66.0,29.34,SW,225,0.0,0.0,88,0.00,,,0.00,Rainwise IP-100,2013-08-31 01:52:00,
2013-08-30 21:57:00,70.0,66.0,29.33,SW,225,0.0,0.0,88,0.00,,,0.00,Rainwise IP-100,2013-08-31 01:57:00,
2013-08-30 22:03:00,70.0,66.0,29.34,SW,225,0.0,0.0,89,0.00,,,0.00,Rainwise IP-100,2013-08-31 02:03:00,
2013-08-30 22:08:00,70.0,66.0,29.34,SW,225,0.0,0.0,89,0.00,,,0.00,Rainwise IP-100,2013-08-31 02:08:00,
2013-08-30 22:13:00,70.0,66.0,29.33,SW,225,0.0,0.0,89,0.00,,,0.00,Rainwise IP-100,2013-08-31 02:13:00,
2013-08-30 22:18:00,70.1,66.0,29.34,SW,225,0.0,0.0,89,0.00,,,0.00,Rainwise IP-100,2013-08-31 02:18:00,
2013-08-30 22:23:00,70.1,66.0,29.34,WNW,292,0.0,2.0,89,0.00,,,0.00,Rainwise IP-100,2013-08-31 02:23:00,
2013-08-30 22:28:00,70.1,66.0,29.34,WNW,292,0.0,0.0,89,0.00,,,0.00,Rainwise IP-100,2013-08-31 02:28:00,
2013-08-30 22:33:00,70.1,66.0,29.34,WNW,292,0.0,0.0,89,0.00,,,0.00,Rainwise IP-100,2013-08-31 02:33:00,
2013-08-30 22:38:00,70.2,66.0,29.34,NNE,22,0.0,2.0,89,0.00,,,0.00,Rainwise IP-100,2013-08-31 02:38:00,
2013-08-30 22:43:00,70.2,66.0,29.34,NNE,22,0.0,1.0,89,0.00,,,0.00,Rainwise IP-100,2013-08-31 02:43:00,
2013-08-30 22:48:00,70.2,67.0,29.34,NNE,22,0.0,2.0,90,0.00,,,0.00,Rainwise IP-100,2013-08-31 02:48:00,
2013-08-30 22:53:00,70.1,66.0,29.34,NNE,22,1.6,2.0,89,0.00,,,0.00,Rainwise IP-100,2013-08-31 02:53:00,
2013-08-30 22:58:00,70.1,66.0,29.34,NNE,22,0.0,2.0,89,0.00,,,0.00,Rainwise IP-100,2013-08-31 02:58:00,
2013-08-30 23:03:00,70.1,66.0,29.34,NNE,22,0.0,1.0,89,0.00,,,0.00,Rainwise IP-100,2013-08-31 03:03:00,
2013-08-30 23:08:00,70.1,66.0,29.34,NNE,22,1.6,2.0,89,0.00,,,0.00,Rainwise IP-100,2013-08-31 03:08:00,
2013-08-30 23:13:00,70.0,66.0,29.33,NNE,22,0.0,2.0,89,0.00,,,0.00,Rainwise IP-100,2013-08-31 03:13:00,
2013-08-30 23:19:00,69.9,66.0,29.34,NNE,22,0.0,1.0,89,0.00,,,0.00,Rainwise IP-100,2013-08-31 03:19:00,
2013-08-30 23:24:00,69.8,66.0,29.34,NW,315,0.0,0.0,89,0.00,,,0.00,Rainwise IP-100,2013-08-31 03:24:00,
2013-08-30 23:29:00,69.9,66.0,29.33,WSW,247,1.4,1.4,89,0.00,,,0.00,Rainwise IP-100,2013-08-31 03:29:00,
2013-08-30 23:34:00,70.0,66.0,29.34,WSW,247,1.2,2.0,89,0.00,,,0.00,Rainwise IP-100,2013-08-31 03:34:00,
2013-08-30 23:39:00,70.0,66.0,29.34,WSW,247,1.4,1.4,89,0.00,,,0.00,Rainwise IP-100,2013-08-31 03:39:00,
2013-08-30 23:44:00,69.9,66.0,29.34,SW,225,1.9,2.0,89,0.00,,,0.00,Rainwise IP-100,2013-08-31 03:44:00,
2013-08-30 23:49:00,69.9,66.0,29.34,SW,225,1.6,2.0,89,0.00,,,0.00,Rainwise IP-100,2013-08-31 03:49:00,
2013-08-30 23:54:00,69.9,66.0,29.34,SW,225,1.9,2.0,89,0.00,,,0.00,Rainwise IP-100,2013-08-31 03:54:00,
2013-08-30 23:59:00,69.9,66.0,29.34,SW,225,2.1,2.1,89,0.00,,,0.00,Rainwise IP-100,2013-08-31 03:59:00,